| time (UTC) | temp F | wind direction | speed MPH | gust MPH | rain 1hr in | rain 24hr in | rain mn in | humidity % | barometer mb |
| 20260508174537 | 53 | 296 | 1.0 | 5.0 | 0.00 | 0.00 | 0.00 | 36 | 1009.0 |
| 20260508173032 | 52 | 269 | 0.0 | 5.0 | 0.00 | 0.00 | 0.00 | 38 | 1009.2 |
| 20260508171540 | 52 | 157 | 1.0 | 6.0 | 0.00 | 0.00 | 0.00 | 36 | 1009.2 |
| 20260508170037 | 52 | 269 | 1.0 | 7.0 | 0.00 | 0.00 | 0.00 | 36 | 1009.2 |
| 20260508164533 | 52 | 320 | 1.0 | 4.0 | 0.00 | 0.00 | 0.00 | 36 | 1009.3 |
| 20260508163033 | 51 | 214 | 1.0 | 4.0 | 0.00 | 0.00 | 0.00 | 38 | 1009.3 |
| 20260508161532 | 55 | 304 | 2.0 | 8.0 | 0.00 | 0.00 | 0.00 | 32 | 1009.2 |
| 20260508160053 | 57 | 253 | 2.0 | 5.0 | 0.00 | 0.00 | 0.00 | 31 | 1009.0 |
| 20260508154533 | 55 | 261 | 2.0 | 4.0 | 0.00 | 0.00 | 0.00 | 34 | 1008.9 |
| 20260508153042 | 53 | 240 | 2.0 | 6.0 | 0.00 | 0.00 | 0.00 | 34 | 1009.0 |
| 20260508151533 | 51 | 301 | 2.0 | 4.0 | 0.00 | 0.00 | 0.00 | 38 | 1009.0 |
| 20260508150035 | 54 | 296 | 1.0 | 4.0 | 0.00 | 0.00 | 0.00 | 36 | 1009.1 |
| 20260508144534 | 52 | 272 | 1.0 | 5.0 | 0.00 | 0.00 | 0.00 | 35 | 1009.0 |
| 20260508143039 | 49 | 276 | 2.0 | 5.0 | 0.00 | 0.00 | 0.00 | 38 | 1009.1 |
| 20260508141537 | 48 | 73 | 1.0 | 6.0 | 0.00 | 0.00 | 0.00 | 38 | 1009.2 |
| 20260508140038 | 50 | 294 | 1.0 | 6.0 | 0.00 | 0.00 | 0.00 | 39 | 1009.0 |
| 20260508134535 | 51 | 336 | 1.0 | 5.0 | 0.00 | 0.00 | 0.00 | 42 | 1009.3 |
| 20260508133034 | 48 | 211 | 1.0 | 6.0 | 0.00 | 0.00 | 0.00 | 48 | 1009.4 |
| 20260508131531 | 46 | 273 | 1.0 | 3.0 | 0.00 | 0.00 | 0.00 | 51 | 1009.5 |
| 20260508130030 | 47 | 0 | 0.0 | 7.0 | 0.00 | 0.00 | 0.00 | 50 | 1009.6 |
| 20260508124534 | 46 | 314 | 1.0 | 3.0 | 0.00 | 0.00 | 0.00 | 56 | 1009.6 |
| 20260508123032 | 47 | 211 | 0.0 | 5.0 | 0.00 | 0.00 | 0.00 | 57 | 1009.5 |
| 20260508121553 | 45 | 0 | 0.0 | 1.0 | 0.00 | 0.00 | 0.00 | 70 | 1009.4 |
| 20260508120036 | 41 | 0 | 0.0 | 1.0 | 0.00 | 0.00 | 0.00 | 74 | 1009.5 |
| 20260508114531 | 38 | 234 | 0.0 | 1.0 | 0.00 | 0.00 | 0.00 | 81 | 1009.3 |
| 20260508113036 | 36 | 0 | 0.0 | 0.0 | 0.00 | 0.00 | 0.00 | 83 | 1009.3 |
| 20260508111532 | 33 | 0 | 0.0 | 0.0 | 0.00 | 0.00 | 0.00 | 89 | 1009.2 |
| 20260508110045 | 32 | 0 | 0.0 | 0.0 | 0.00 | 0.00 | 0.00 | 90 | 1009.0 |
| 20260508104532 | 31 | 0 | 0.0 | 0.0 | 0.00 | 0.01 | 0.00 | 90 | 1008.8 |
| 20260508103034 | 30 | 0 | 0.0 | 0.0 | 0.00 | 0.01 | 0.00 | 90 | 1008.7 |
| 20260508101535 | 29 | 0 | 0.0 | 0.0 | 0.00 | 0.01 | 0.00 | 90 | 1008.5 |
| 20260508100034 | 29 | 0 | 0.0 | 0.0 | 0.00 | 0.01 | 0.00 | 90 | 1008.5 |
| 20260508094530 | 29 | 0 | 0.0 | 0.0 | 0.00 | 0.01 | 0.00 | 90 | 1008.2 |
| 20260508093035 | 29 | 0 | 0.0 | 0.0 | 0.00 | 0.01 | 0.00 | 90 | 1008.2 |
| 20260508091532 | 29 | 0 | 0.0 | 0.0 | 0.00 | 0.01 | 0.00 | 91 | 1008.1 |
| 20260508090034 | 29 | 0 | 0.0 | 0.0 | 0.00 | 0.01 | 0.00 | 91 | 1008.1 |
| 20260508084535 | 29 | 0 | 0.0 | 0.0 | 0.00 | 0.01 | 0.00 | 91 | 1008.2 |
| 20260508083114 | 29 | 0 | 0.0 | 0.0 | 0.00 | 0.01 | 0.00 | 92 | 1008.2 |
| 20260508081532 | 28 | 0 | 0.0 | 0.0 | 0.00 | 0.01 | 0.00 | 92 | 1008.0 |
| 20260508080032 | 28 | 0 | 0.0 | 0.0 | 0.00 | 0.01 | 0.00 | 91 | 1007.9 |
| 20260508074536 | 28 | 0 | 0.0 | 0.0 | 0.00 | 0.01 | 0.00 | 92 | 1007.6 |
| 20260508073034 | 28 | 0 | 0.0 | 0.0 | 0.00 | 0.01 | 0.00 | 91 | 1007.6 |
| 20260508071535 | 29 | 0 | 0.0 | 0.0 | 0.00 | 0.01 | 0.00 | 90 | 1007.7 |
| 20260508070035 | 29 | 0 | 0.0 | 0.0 | 0.00 | 0.01 | 0.00 | 90 | 1007.8 |
| 20260508064553 | 29 | 0 | 0.0 | 0.0 | 0.00 | 0.01 | 0.00 | 89 | 1007.9 |
| 20260508063038 | 30 | 0 | 0.0 | 0.0 | 0.00 | 0.01 | 0.00 | 89 | 1007.9 |
| 20260508061532 | 30 | 0 | 0.0 | 0.0 | 0.00 | 0.01 | 0.00 | 88 | 1007.9 |
| 20260508060031 | 31 | 0 | 0.0 | 1.0 | 0.00 | 0.01 | 0.00 | 87 | 1007.5 |
| 20260508054533 | 31 | 0 | 0.0 | 0.0 | 0.00 | 0.01 | 0.00 | 87 | 1008.0 |
| 20260508053032 | 31 | 0 | 0.0 | 0.0 | 0.00 | 0.01 | 0.00 | 87 | 1008.2 |
| 20260508051530 | 31 | 0 | 0.0 | 0.0 | 0.00 | 0.01 | 0.00 | 86 | 1008.4 |
| 20260508050041 | 31 | 0 | 0.0 | 0.0 | 0.00 | 0.01 | 0.00 | 85 | 1008.6 |
| 20260508044534 | 32 | 0 | 0.0 | 0.0 | 0.00 | 0.01 | 0.00 | 85 | 1008.6 |
| 20260508043036 | 32 | 0 | 0.0 | 1.0 | 0.00 | 0.01 | 0.00 | 85 | 1008.6 |
| 20260508041536 | 33 | 0 | 0.0 | 0.0 | 0.00 | 0.01 | 0.00 | 84 | 1008.7 |
| 20260508040035 | 33 | 0 | 0.0 | 0.0 | 0.00 | 0.01 | 0.00 | 82 | 1008.7 |
| 20260508034535 | 34 | 0 | 0.0 | 0.0 | 0.00 | 0.01 | 0.01 | 82 | 1008.7 |
| 20260508033034 | 35 | 0 | 0.0 | 0.0 | 0.00 | 0.01 | 0.01 | 80 | 1008.6 |
| 20260508031533 | 35 | 0 | 0.0 | 0.0 | 0.00 | 0.01 | 0.01 | 80 | 1008.7 |
| 20260508030034 | 36 | 0 | 0.0 | 1.0 | 0.00 | 0.01 | 0.01 | 78 | 1008.7 |
| 20260508024541 | 37 | 0 | 0.0 | 0.0 | 0.00 | 0.06 | 0.01 | 78 | 1008.7 |
| 20260508023037 | 38 | 0 | 0.0 | 0.0 | 0.00 | 0.06 | 0.01 | 78 | 1008.7 |
| 20260508021535 | 38 | 0 | 0.0 | 1.0 | 0.00 | 0.06 | 0.01 | 76 | 1008.8 |
| 20260508020031 | 39 | 0 | 0.0 | 1.0 | 0.00 | 0.06 | 0.01 | 75 | 1008.5 |
| 20260508014534 | 40 | 0 | 0.0 | 0.0 | 0.00 | 0.13 | 0.01 | 73 | 1008.3 |
| 20260508013032 | 41 | 0 | 0.0 | 0.0 | 0.00 | 0.13 | 0.01 | 63 | 1008.0 |
| 20260508011548 | 41 | 0 | 0.0 | 0.0 | 0.00 | 0.13 | 0.01 | 62 | 1008.0 |
| 20260508010036 | 42 | 0 | 0.0 | 0.0 | 0.00 | 0.13 | 0.01 | 58 | 1007.8 |
| 20260508004545 | 44 | 0 | 0.0 | 0.0 | 0.00 | 0.15 | 0.01 | 53 | 1007.6 |
| 20260508003038 | 45 | 0 | 0.0 | 1.0 | 0.00 | 0.15 | 0.01 | 54 | 1007.4 |
| 20260508001538 | 45 | 0 | 0.0 | 2.0 | 0.00 | 0.15 | 0.01 | 52 | 1007.1 |
| 20260508000031 | 46 | 0 | 0.0 | 1.0 | 0.00 | 0.15 | 0.01 | 53 | 1007.0 |
| 20260507234532 | 47 | 0 | 0.0 | 1.0 | 0.00 | 0.30 | 0.01 | 52 | 1006.7 |
| 20260507233032 | 48 | 266 | 0.0 | 3.0 | 0.00 | 0.30 | 0.01 | 50 | 1006.7 |
| 20260507231536 | 49 | 220 | 0.0 | 1.0 | 0.00 | 0.30 | 0.01 | 47 | 1006.5 |
| 20260507230031 | 50 | 285 | 1.0 | 3.0 | 0.00 | 0.30 | 0.01 | 45 | 1006.6 |
| 20260507224539 | 51 | 254 | 0.0 | 1.0 | 0.00 | 0.31 | 0.01 | 45 | 1006.6 |
| 20260507223034 | 52 | 0 | 0.0 | 5.0 | 0.00 | 0.31 | 0.01 | 44 | 1006.5 |
| 20260507221534 | 53 | 267 | 1.0 | 5.0 | 0.00 | 0.31 | 0.01 | 41 | 1006.4 |
| 20260507220035 | 53 | 315 | 1.0 | 4.0 | 0.00 | 0.31 | 0.01 | 39 | 1006.3 |
| 20260507214534 | 53 | 0 | 0.0 | 4.0 | 0.00 | 0.31 | 0.01 | 39 | 1006.4 |
| 20260507213033 | 53 | 264 | 1.0 | 3.0 | 0.00 | 0.31 | 0.01 | 39 | 1006.3 |
| 20260507211535 | 54 | 34 | 1.0 | 3.0 | 0.00 | 0.31 | 0.01 | 39 | 1006.3 |
| 20260507210039 | 55 | 304 | 1.0 | 5.0 | 0.00 | 0.31 | 0.01 | 38 | 1006.1 |
| 20260507204543 | 54 | 0 | 0.0 | 3.0 | 0.00 | 0.32 | 0.01 | 37 | 1006.2 |
| 20260507203034 | 56 | 291 | 1.0 | 6.0 | 0.00 | 0.32 | 0.01 | 36 | 1006.3 |
| 20260507201537 | 57 | 121 | 0.0 | 3.0 | 0.00 | 0.32 | 0.01 | 37 | 1006.1 |
| 20260507200036 | 58 | 280 | 2.0 | 5.0 | 0.00 | 0.32 | 0.01 | 35 | 1006.1 |
| 20260507194536 | 55 | 256 | 1.0 | 4.0 | 0.00 | 0.35 | 0.01 | 38 | 1006.3 |
| 20260507193034 | 55 | 229 | 1.0 | 7.0 | 0.00 | 0.35 | 0.01 | 41 | 1006.4 |
| 20260507191532 | 57 | 275 | 2.0 | 6.0 | 0.00 | 0.35 | 0.01 | 36 | 1006.6 |
| 20260507190039 | 57 | 259 | 1.0 | 4.0 | 0.00 | 0.35 | 0.01 | 38 | 1006.6 |
| 20260507184537 | 55 | 229 | 1.0 | 5.0 | 0.00 | 0.48 | 0.01 | 41 | 1006.7 |
| 20260507183037 | 54 | 351 | 2.0 | 4.0 | 0.00 | 0.48 | 0.01 | 40 | 1007.1 |
| 20260507181535 | 56 | 300 | 2.0 | 7.0 | 0.00 | 0.48 | 0.01 | 38 | 1007.0 |
| 20260507180032 | 55 | 246 | 1.0 | 5.0 | 0.00 | 0.48 | 0.01 | 40 | 1007.1 |